DateTimeUTC,F1_A11,F1_S11,BsB_S11,BsG_S11,BsR_S11,BbsB_S11,BbsG_S11,BbsR_S11,BaB_A11,BaG_A11,BaR_A11,Tu_S11,T_S11,Uu_S11,U_S11,P_S11,T1_A11
2021-01-22T01:00:00Z,00000200,21000000,,,,,,,-000.15,-000.36,0000.11,16.5,23.4,,00.0,0650.7,30.9
2021-01-22T01:01:00Z,00000200,21000000,,,,,,,0000.42,0000.16,0000.21,16.5,23.4,,00.0,0650.7,30.9
2021-01-22T01:02:00Z,00000200,21000000,,,,,,,-000.32,0000.27,-000.24,16.5,23.5,,00.0,0650.7,30.9
2021-01-22T01:03:00Z,00000200,61000000,,,,,,,0000.35,-000.00,0000.23,16.5,23.5,,00.0,0650.7,30.9
2021-01-22T01:04:00Z,00000200,41000000,0000.26,0000.49,-000.08,0000.44,0000.16,-000.15,0000.19,0000.60,0000.12,16.7,23.3,,00.0,0651.6,30.9
2021-01-22T01:05:00Z,00000200,01000000,-000.02,0000.31,0000.28,0000.80,0000.21,0000.06,0000.15,-000.11,0000.34,16.8,23.3,,00.0,0651.6,30.9
2021-01-22T01:06:00Z,00000200,01000000,0000.33,0000.35,-000.05,0000.08,0000.23,-000.10,0000.10,0000.12,0000.04,16.7,23.3,,00.0,0651.6,30.9
2021-01-22T01:07:00Z,00000200,01000000,0000.69,0000.10,-000.17,0000.72,0000.10,0000.11,0000.02,-000.02,-000.05,16.7,23.2,,00.0,0651.6,30.9
2021-01-22T01:08:00Z,00000200,01000000,0000.28,0000.26,-000.14,0000.63,0000.03,0000.12,0000.61,0000.09,0000.24,16.7,23.2,,00.0,0651.6,30.9
2021-01-22T01:09:00Z,00000200,01000000,0000.23,-000.00,-000.00,0000.81,0000.08,0000.01,-000.01,0000.19,-000.22,16.7,23.2,,00.0,0651.6,30.9
2021-01-22T01:10:00Z,00000200,01000000,0000.74,-000.01,0000.07,0000.42,-000.09,0000.10,0000.07,0000.09,0000.33,16.6,23.2,,00.0,0651.6,30.8
2021-01-22T01:11:00Z,00000200,01000000,-000.14,0000.31,0000.14,0000.15,0000.08,0000.26,0001.56,0001.33,0001.10,16.6,23.2,,00.0,0651.6,30.8
2021-01-22T01:12:00Z,00000200,01000000,0000.55,0000.41,0000.67,-000.31,-000.03,-000.00,0006.48,0006.33,0004.89,16.6,23.1,,00.0,0651.6,30.8
2021-01-22T01:13:00Z,00000200,01000000,-000.09,0000.37,0000.09,0000.57,-000.14,0000.03,0000.52,0000.31,0000.63,16.7,23.1,,00.0,0651.6,30.8
2021-01-22T01:14:00Z,00000200,01000000,-000.09,0000.30,-000.06,-000.06,0000.02,-000.05,0000.43,0000.43,-000.56,16.8,23.2,,00.0,0651.5,30.9
2021-01-22T01:15:00Z,00000200,01000000,0000.35,0000.21,-000.02,-000.12,-000.01,0000.08,0000.03,-000.05,0000.70,16.8,23.2,,00.0,0651.6,30.9
2021-01-22T01:16:00Z,00000200,01000000,-000.19,0000.64,0000.38,0000.80,0000.12,0000.00,0004.20,0003.90,0002.60,16.8,23.2,,00.0,0651.5,30.9
2021-01-22T01:17:00Z,00000200,01000000,0000.35,0000.20,0000.40,0000.49,0000.37,0000.04,0005.25,0004.83,0004.04,16.8,23.2,,00.0,0651.5,30.9
2021-01-22T01:18:00Z,00000200,01010000,0000.91,0001.20,0000.51,0000.49,-000.05,0000.22,0017.41,0016.13,0012.67,16.8,23.2,,00.0,0651.6,30.9
2021-01-22T01:19:00Z,00000200,01000000,0002.53,0001.99,0001.30,0000.61,0000.38,0000.53,0039.36,0036.40,0028.84,16.8,23.2,,00.0,0651.6,30.9
2021-01-22T01:20:00Z,00000200,01000000,0002.27,0001.47,0001.19,0000.35,0000.25,0000.32,0033.95,0031.09,0024.65,16.8,23.2,,00.0,0651.6,30.9
2021-01-22T01:21:00Z,00000200,01000000,0001.03,0001.18,0000.84,0000.74,0000.22,0000.26,0022.18,0020.45,0016.00,16.7,23.2,,00.0,0651.6,30.9
2021-01-22T01:22:00Z,00000200,01000000,0001.92,0001.17,0000.74,0000.24,0000.35,0000.08,0025.94,0023.75,0018.89,16.7,23.2,,00.0,0651.6,30.9
2021-01-22T01:23:00Z,00000200,01000000,0000.29,0000.93,0000.38,0000.23,-000.02,0000.19,0015.16,0014.22,0011.52,16.7,23.2,,00.0,0651.6,30.9
2021-01-22T01:24:00Z,00000200,01000000,0000.04,0000.08,0000.12,0000.14,0000.17,0000.28,0001.29,0001.55,0000.64,16.7,23.1,00.0,00.0,0651.6,30.9
2021-01-22T01:25:00Z,00000200,01000000,0001.11,0000.64,0000.58,0000.43,0000.45,0000.18,0007.43,0006.64,0005.48,16.7,23.1,,00.0,0651.6,30.8
2021-01-22T01:26:00Z,00000200,01000000,0001.46,0001.33,0000.82,0000.65,0000.22,0000.17,0024.05,0021.66,0017.28,16.6,23.1,,00.0,0651.5,30.8
2021-01-22T01:27:00Z,00000200,01000000,0001.64,0001.62,0000.76,0000.79,0000.37,-000.10,0025.97,0024.18,0018.82,16.6,23.1,,00.0,0651.5,30.8
2021-01-22T01:28:00Z,00000200,01000000,0000.69,0001.03,0000.61,0000.70,0000.04,0000.14,0020.19,0018.81,0015.12,16.7,23.1,,00.0,0651.5,30.8
2021-01-22T01:29:00Z,00000200,01000000,0000.68,0001.29,0000.60,0000.53,0000.25,0000.05,0019.76,0018.64,0014.46,16.8,23.1,,00.0,0651.5,30.9
2021-01-22T01:30:00Z,00000200,01000000,0000.31,0000.34,-000.03,0000.12,-000.20,-000.04,0003.43,0002.97,0002.49,16.9,23.2,,00.0,0651.6,30.9
2021-01-22T01:31:00Z,00000200,01000000,-000.33,0000.40,0000.05,-000.08,-000.10,-000.01,0000.84,0000.24,0000.82,16.9,23.2,,00.0,0651.5,30.9
2021-01-22T01:32:00Z,00000200,01000000,-000.66,0000.31,0000.38,0000.09,-000.00,-000.00,0001.72,0001.89,0000.95,16.9,23.2,,00.0,0651.5,30.9
2021-01-22T01:33:00Z,00000200,01000000,0000.44,0000.38,0000.12,0000.21,0000.16,0000.05,0002.09,0002.15,0001.71,17.0,23.2,,00.0,0651.5,30.9
2021-01-22T01:34:00Z,00000200,01000000,-000.05,0000.43,0000.02,0000.67,-000.21,-000.06,0001.40,0001.24,0000.64,16.9,23.2,,00.0,0651.6,30.9
2021-01-22T01:35:00Z,00000200,01000000,0000.39,0000.29,0000.17,0000.07,0000.09,0000.02,0000.49,0000.00,0000.68,16.9,23.2,,00.0,0651.6,30.9
2021-01-22T01:36:00Z,00000200,01000000,0001.17,0001.37,0000.86,0000.79,0000.33,0000.01,0015.45,0014.43,0010.95,16.9,23.2,,00.0,0651.6,30.9
2021-01-22T01:37:00Z,00000200,01000000,0002.97,0001.70,0000.92,0000.68,0000.42,0000.24,0035.27,0032.43,0025.78,16.8,23.2,,00.0,0651.6,30.9
2021-01-22T01:38:00Z,00000200,01000000,-000.19,0000.26,0000.13,0000.68,0000.03,-000.01,0003.56,0003.60,0002.78,16.8,23.2,,00.0,0651.6,30.9
2021-01-22T01:39:00Z,00000200,01000000,-000.07,0000.34,0000.07,0000.02,0000.04,-000.16,0000.98,0000.74,0000.88,16.8,23.2,,00.0,0651.6,30.8
2021-01-22T01:40:00Z,00000200,01000000,-000.47,0000.25,0000.35,0000.64,0000.06,-000.03,0000.83,0000.94,0000.39,16.8,23.2,,00.0,0651.6,30.8
2021-01-22T01:41:00Z,00000200,01000000,-000.37,0000.03,-000.08,0000.33,-000.13,0000.05,0000.59,-000.11,0000.28,16.8,23.1,,00.0,0651.5,30.8
2021-01-22T01:42:00Z,00000200,01000000,-000.44,0000.28,0000.24,0000.39,0000.04,-000.03,0000.29,0000.40,0000.22,16.8,23.2,,00.0,0651.6,30.8
2021-01-22T01:43:00Z,00000200,01000000,-000.22,0000.09,0000.00,0000.34,0000.13,-000.34,0000.37,0000.73,0000.24,16.8,23.2,,00.0,0651.5,30.9
2021-01-22T01:44:00Z,00000200,01000000,0000.01,0000.13,-000.08,0000.64,-000.26,0000.38,0000.73,0000.54,0000.67,16.9,23.2,,00.0,0651.6,30.9
2021-01-22T01:45:00Z,00000200,01000000,-000.31,0000.20,-000.06,-000.02,-000.10,-000.11,0000.28,0000.58,-000.04,16.9,23.2,00.0,00.0,0651.6,30.9
2021-01-22T01:46:00Z,00000200,01000000,-000.19,0000.43,-000.13,0000.19,-000.10,0000.01,0000.35,0000.15,0000.55,17.0,23.3,,00.0,0651.6,30.9
2021-01-22T01:47:00Z,00000200,01000000,0000.27,0000.21,0000.06,0000.46,-000.09,0000.22,0000.67,0000.25,0000.47,16.9,23.3,,00.0,0651.7,30.9
2021-01-22T01:48:00Z,00000200,01000000,-000.34,0000.20,-000.01,0000.50,-000.19,0000.26,0000.03,0000.63,0000.13,16.9,23.3,,00.0,0651.7,30.9
2021-01-22T01:49:00Z,00000200,01000000,0000.85,0000.19,-000.03,0000.51,0000.23,-000.03,0000.47,0000.36,0000.10,16.9,23.2,,00.0,0651.7,30.9
2021-01-22T01:50:00Z,00000200,01000000,0000.10,0000.20,-000.07,0000.51,-000.05,-000.28,0000.37,-000.04,0000.18,16.9,23.2,,00.0,0651.7,30.9
2021-01-22T01:51:00Z,00000200,01000000,0000.19,0000.19,0000.04,0000.14,0000.04,-000.01,0000.20,0000.54,0000.17,16.8,23.2,,00.0,0651.7,30.9
2021-01-22T01:52:00Z,00000200,01000000,-000.33,0000.41,0000.23,0000.36,-000.10,0000.07,0000.02,0000.08,0000.03,16.8,23.2,,00.0,0651.7,30.9
2021-01-22T01:53:00Z,00000200,01000000,0000.20,0000.13,0000.03,0000.05,-000.15,0000.28,0000.38,0000.39,0000.34,16.8,23.2,,00.0,0651.7,30.9
2021-01-22T01:54:00Z,00000200,01000000,-000.02,0000.40,0000.03,0000.27,0000.14,-000.21,0000.41,0000.07,0000.16,16.8,23.2,,00.0,0651.7,30.9
2021-01-22T01:55:00Z,00000200,01000000,-000.31,0000.51,0000.00,0000.78,0000.25,0000.01,0000.14,-000.15,0000.33,16.7,23.1,,00.0,0651.6,30.8
2021-01-22T01:56:00Z,00000200,01000000,-000.06,0000.07,-000.07,0001.05,0000.02,-000.14,0000.05,0000.39,0000.15,16.7,23.1,,00.0,0651.6,30.8
2021-01-22T01:57:00Z,00000200,41000000,,,,,,,0000.01,-000.37,-000.26,16.8,23.2,,00.0,0651.5,30.8
2021-01-22T01:58:00Z,00000200,61000000,,,,,,,0000.69,0000.83,0000.50,16.5,23.3,,00.0,0650.8,30.9
2021-01-22T01:59:00Z,00000200,21000000,,,,,,,0000.01,0000.02,-000.21,16.5,23.4,,00.0,0650.7,30.9
